Regional Weather Roundup
Issued by NWS

Home | Current Version | Previous Version | Graphics & Text | Print | Product List | Glossary On
Versions: 1 2 3 4 5 6 7 8 9 10 11 12 13 14 15 16 17 18 19 20 21 22 23 24 25 26 27 28 29 30 31 32 33 34 35 36 37 38 39 40 41 42 43 44 45 46 47 48 49 50
000
ASUS43 KDMX 171007
RWRIA

WEATHER ROUNDUP FOR IOWA
NATIONAL WEATHER SERVICE DES MOINES IA
500 AM CDT WED SEP 17 2014

NOTE: "FAIR" INDICATES FEW OR NO CLOUDS BELOW 12,000 FEET WITH NO
SIGNIFICANT WEATHER AND/OR OBSTRUCTIONS TO VISIBILITY.

* - THESE STATIONS ARE NOT NWS STATIONS...THUS NOT UNDER NWS
QUALITY CONTROL.  THEY ALSO DO NOT REPORT WEATHER SUCH
AS PRECIPITATION OR FOG.

IAZ001>003-012>014-020>022-031>034-043>046-171100-
   NORTHWEST IOWA

CITY           SKY/WX    TMP DP  RH WIND       PRES   REMARKS
CARROLL *      CLOUDY    54  52  94 CALM      29.96F
CHEROKEE *     MOCLDY    52  50  93 S3        29.95F
DENISON *      CLOUDY    57  54  88 CALM      29.94F
LE MARS *      CLEAR     52  50  93 CALM      29.94F
ORANGE CITY *  CLEAR     54  48  82 S3        29.95S
SHELDON *      CLEAR     48  48 100 SE6       29.94S
SIOUX CITY     CLOUDY    56  53  90 E5        29.94F
SPENCER        CLOUDY    53  48  83 CALM      29.96F
STORM LAKE *   CLOUDY    52  52 100 S6        29.95F
$$

IAZ055>058-069>071-079>083-090>094-171100-
   SOUTHWEST IOWA

CITY           SKY/WX    TMP DP  RH WIND       PRES   REMARKS
ATLANTIC *     CLOUDY    57  54  88 CALM      29.95F
AUDUBON *      CLOUDY    55  48  76 CALM      29.97F
CLARINDA *     CLOUDY    61  55  82 CALM      29.97S
COUNCIL BLFS * CLOUDY    59  57  94 SE6       29.93F
CRESTON *      CLOUDY    57  54  88 SE5       29.97F
HARLAN  *      CLOUDY    57  55  94 CALM      29.99F
LAMONI         CLOUDY    57  52  83 SE6       29.97F
SHENANDOAH *   CLOUDY    61  57  88 NE3       29.95F
$$

IAZ047>049-059>061-072>074-084-171100-
   CENTRAL IOWA

CITY           SKY/WX    TMP DP  RH WIND       PRES   REMARKS
AMES           CLOUDY    49  49 100 SE3       29.98F
ANKENY *       CLOUDY    54  52  94 CALM      29.98F
CHARITON *     CLOUDY    55  52  88 SE5       29.99S
DES MOINES     CLOUDY    56  50  80 S7        29.98F
GRINNELL*      MOCLDY    50  46  87 SE5       30.01F
KNOXVILLE *    CLOUDY    54  50  87 SE5       29.98F
MARSHALLTOWN   PTCLDY    50  47  89 S6        29.99F
PELLA *        CLOUDY    54  50  87 SE3       30.01S
PERRY *        CLOUDY    54  52  94 CALM      29.97F
$$

IAZ004>006-015-016-023>025-035-036-171100-
   NORTH CENTRAL IOWA

CITY           SKY/WX    TMP DP  RH WIND       PRES   REMARKS
ALGONA *       CLOUDY    50  48  93 S6        29.97F
CLARION *        N/A     48  46  93 SE6       29.98F
ESTHERVILLE    CLOUDY    51  48  89 S7        29.96F
FORT DODGE *   PTCLDY    48  45  87 CALM      29.98S
MASON CITY     CLOUDY    49  47  93 S5        30.00F
FOREST CITY *  CLOUDY    52  50  93 CALM      29.98F
IOWA FALLS *     N/A     48  46  93 CALM      30.00F
$$

IAZ007>011-017>019-026>030-037>042-050>054-066-171100-
   NORTHEAST IOWA

CITY           SKY/WX    TMP DP  RH WIND       PRES   REMARKS
CEDAR RAPIDS   CLOUDY    49  48  97 SE3       30.01F
CHARLES CITY * CLEAR     46  43  87 SE6       30.00F
CLINTON *      PTCLDY    43  39  87 E3        30.06S
DECORAH *      MOCLDY    48  45  87 CALM      30.00F
DUBUQUE        CLOUDY    46  43  89 CALM      30.04R
MONTICELLO *   PTCLDY    43  43 100 CALM      30.03S
OELWEIN *      CLOUDY    46  46 100 E5        30.02F
WATERLOO       CLOUDY    49  47  93 E6        30.00F
$$

IAZ064-065-067-068-078-171100-
   EAST CENTRAL IOWA

CITY           SKY/WX    TMP DP  RH WIND       PRES   REMARKS
DAVENPORT      MOCLDY    47  43  86 SE5       30.04S
IOWA CITY      PTCLDY    47  46  97 CALM      30.04S
MT. PLEASANT * MOCLDY    48  48 100 S3        30.02F
MUSCATINE *    PTCLDY    46  45  93 CALM      30.03F
QUAD CITIES    PTCLDY    46  43  89 CALM      30.04S
$$

IAZ062-063-075>077-085>089-095>099-171100-
   SOUTHEAST IOWA

CITY           SKY/WX    TMP DP  RH WIND       PRES   REMARKS
BURLINGTON     PTCLDY    51  50  96 SE3       30.02F
FAIRFIELD *    MOCLDY    52  46  82 CALM      30.02S
FORT MADISON * MOCLDY    54  52  94 S6        30.03S
KEOKUK *       PTCLDY    52  50  93 CALM      30.02R
OSKALOOSA *    CLOUDY    52  50  93 SE5       30.00F
CENTERVILLE *  MOCLDY    54  54 100 SE3       30.01F
OTTUMWA        CLOUDY    53  50  89 SE6       30.00F
WASHINGTON *   CLEAR     48  46  93 CALM      30.02S
$$

ABBREVIATIONS USED IN REMARKS
   TC - TEMPERATURES IN CELSIUS
  WCI - WIND CHILL INDEX
   HX - HEAT INDEX
  VSB - VISIBILITY
$$




USA.gov is the U.S. government's official web portal to all federal, state and local government web resources and services.